TimeCST,TemperatureF,Dew PointF,Humidity,Sea Level PressureIn,VisibilityMPH,Wind Direction,Wind SpeedMPH,Gust SpeedMPH,PrecipitationIn,Events,Conditions,WindDirDegrees,DateUTC
12:55 AM,26.1,12.9,58,30.40,10.0,SSE,4.6,-,N/A,,Clear,160,2012-11-24 06:55:00
1:55 AM,27.0,12.9,56,30.38,10.0,SE,3.5,-,N/A,,Clear,130,2012-11-24 07:55:00
2:55 AM,26.1,12.9,58,30.37,10.0,SE,4.6,-,N/A,,Clear,130,2012-11-24 08:55:00
3:55 AM,26.1,14.0,60,30.33,10.0,SSE,8.1,-,N/A,,Clear,150,2012-11-24 09:55:00
4:55 AM,28.0,14.0,56,30.30,10.0,South,11.5,-,N/A,,Clear,170,2012-11-24 10:55:00
5:55 AM,28.9,15.1,56,30.29,10.0,South,11.5,-,N/A,,Clear,170,2012-11-24 11:55:00
6:55 AM,28.9,15.1,56,30.27,10.0,SSE,13.8,-,N/A,,Clear,160,2012-11-24 12:55:00
7:55 AM,30.0,15.1,54,30.23,10.0,South,19.6,26.5,N/A,,Clear,170,2012-11-24 13:55:00
8:55 AM,33.1,17.1,52,30.21,10.0,South,17.3,25.3,N/A,,Clear,170,2012-11-24 14:55:00
9:55 AM,36.0,18.0,48,30.18,10.0,South,17.3,26.5,N/A,,Clear,170,2012-11-24 15:55:00
10:55 AM,39.9,19.0,43,30.12,10.0,South,21.9,32.2,N/A,,Clear,180,2012-11-24 16:55:00
11:55 AM,44.1,21.0,40,30.08,10.0,SSW,17.3,-,N/A,,Clear,210,2012-11-24 17:55:00
12:55 PM,48.9,21.0,33,30.02,10.0,SSW,17.3,24.2,N/A,,Clear,200,2012-11-24 18:55:00
1:55 PM,51.1,21.9,32,29.97,10.0,South,16.1,-,N/A,,Clear,190,2012-11-24 19:55:00
2:55 PM,54.0,23.0,30,29.93,10.0,South,16.1,-,N/A,,Clear,190,2012-11-24 20:55:00
3:55 PM,55.0,24.1,30,29.91,10.0,South,16.1,-,N/A,,Clear,190,2012-11-24 21:55:00
4:55 PM,52.0,24.1,34,29.90,10.0,South,8.1,-,N/A,,Clear,180,2012-11-24 22:55:00
5:55 PM,50.0,24.1,36,29.89,10.0,South,10.4,-,N/A,,Clear,190,2012-11-24 23:55:00
6:55 PM,51.1,24.1,35,29.86,10.0,South,17.3,-,N/A,,Clear,180,2012-11-25 00:55:00
7:55 PM,52.0,24.1,34,29.84,10.0,South,21.9,-,N/A,,Clear,190,2012-11-25 01:55:00
8:55 PM,51.1,23.0,33,29.83,10.0,South,19.6,-,N/A,,Clear,190,2012-11-25 02:55:00
9:55 PM,50.0,23.0,35,29.84,10.0,SSW,17.3,-,N/A,,Clear,200,2012-11-25 03:55:00
10:55 PM,46.9,23.0,39,29.85,10.0,SSW,12.7,-,N/A,,Clear,210,2012-11-25 04:55:00
11:55 PM,46.9,23.0,39,29.87,10.0,North,8.1,-,N/A,,Clear,360,2012-11-25 05:55:00